This is the latest recevied weather packets stored in our database for station/object K6MBY. If no packets are shown the sender has not sent any weather packets the latest 10 day(s).
| Time | Temp. | Humidity | Pressure | Rain* | Wind** | Luminosity | Snow |
|---|---|---|---|---|---|---|---|
| 1777663668 | 12.78° C | 87% | 1020.6 hPa | 0 mm | - | 832 W/m² | - |
| 1777663365 | 12.22° C | 87% | 1020.8 hPa | 0 mm | - | 820 W/m² | - |
| 1777663062 | 11.67° C | 89% | 1020.8 hPa | 0 mm | - | 809 W/m² | - |
| 1777662760 | 11.67° C | 88% | 1020.7 hPa | 0 mm | - | 762 W/m² | - |
| 1777662456 | 11.67° C | 89% | 1020.8 hPa | 0 mm | - | 741 W/m² | - |
| 1777662152 | 11.67° C | 90% | 1020.9 hPa | 0 mm | - | 818 W/m² | - |
| 1777661848 | 11.67° C | 89% | 1020.9 hPa | 0 mm | - | 734 W/m² | - |
| 1777661544 | 12.22° C | 88% | 1021.1 hPa | 0 mm | - | 716 W/m² | - |
| 1777661240 | 12.22° C | 89% | 1021.1 hPa | 0 mm | - | 736 W/m² | - |
| 1777660935 | 12.22° C | 89% | 1020.7 hPa | 0 mm | - | 711 W/m² | - |
| 1777660631 | 11.67° C | 89% | 1020.9 hPa | 0 mm | - | 689 W/m² | - |
| 1777660329 | 11.67° C | 89% | 1020.8 hPa | 0 mm | - | 708 W/m² | - |
| 1777660025 | 12.22° C | 89% | 1020.9 hPa | 0 mm | - | 733 W/m² | - |
| 1777659722 | 11.67° C | 91% | 1021 hPa | 0 mm | - | 632 W/m² | - |
| 1777659418 | 11.67° C | 89% | 1021 hPa | 0 mm | - | 745 W/m² | - |
| 1777659116 | 12.22° C | 88% | 1021.1 hPa | 0 mm | - | 679 W/m² | - |
| 1777658814 | 12.22° C | 89% | 1021.1 hPa | 0 mm | - | 690 W/m² | - |
| 1777658509 | 12.78° C | 87% | 1021 hPa | 0 mm | - | 691 W/m² | - |
| 1777658206 | 12.22° C | 89% | 1021.2 hPa | 0 mm | - | 739 W/m² | - |
| 1777657903 | 12.22° C | 89% | 1021.1 hPa | 0 mm | - | 544 W/m² | - |
| 1777657600 | 11.67° C | 90% | 1021 hPa | 0 mm | - | 656 W/m² | - |
| 1777657298 | 11.11° C | 92% | 1020.9 hPa | 0 mm | - | 607 W/m² | - |
| 1777656995 | 11.67° C | 92% | 1021.1 hPa | 0 mm | - | 587 W/m² | - |
| 1777656692 | 11.67° C | 94% | 1021 hPa | 0 mm | - | 602 W/m² | - |
| 1777656388 | 11.11° C | 96% | 1020.9 hPa | 0 mm | - | 645 W/m² | - |
* Rain latest hour (hover to see other rain measurements)
** Current wind speed in m/s (hover to see current wind gust speed)